Location: Newark
(13.6797°N, 8.5297°E)
Time: 03:59:05
(UTC+00:00)

Altair - Pass Details

Date: 26 January 2020
Orbit: 1502 x 1682 km, 47.2° (Epoch: 18 February)

Event Time Altitude Azimuth Distance (km) Brightness Sun altitude
Rises 15:47:32 0° 316° (NW) 4,887 10.4 20.6°
Reaches altitude 10° 15:50:42 10° 316° (NW) 3,880 9.9 19.9°
Maximum altitude 16:00:37 81° 230° (SW) 1,618 8.1 17.7°
Drops below altitude 10° 16:10:08 10° 143° (SE) 3,735 9.5 15.6°
Sets 16:13:08 0° 142° (SE) 4,696 9.9 15.0°
